Ely, MN

6:36 PM CDT on July 24, 2017 (GMT -0500)
Ely Municipal

Weather History for KELO - October, 2011

Change the Weather History Date:

Tuesday, October 25, 2011

  Actual Average Record
Temperature  
Mean Temperature 34 °F -  
Max Temperature 44 °F 45 °F 64 °F (2000)
Min Temperature 24 °F 30 °F 17 °F (2002)
Degree Days  
Heating Degree Days 31    
Moisture  
Dew Point 28 °F    
Average Humidity 78    
Maximum Humidity 100    
Minimum Humidity 53    
Precipitation  
Precipitation 0.00 in - - ()
Sea Level Pressure  
Sea Level Pressure 30.04 in    
Wind  
Wind Speed 1 mph (ENE)    
Max Wind Speed 6 mph    
Max Gust Speed -    
Visibility 10 miles    
Events      
Averages and records for this station are not official NWS values.
T = Trace of Precipitation, MM = Missing Value Source: NWS Daily Summary

Daily Weather History Graph

Daily Weather History Graph

Search for Another Location

Airport or City:

Trip Planner

Search our weather history database for the weather conditions in past years. The results will help you decide how hot, cold, wet, or windy it might be!

Date:

Astronomy

Oct. 25, 2011 Rise Set
Actual Time 7:40 AM CDT 6:01 PM CDT
Civil Twilight 7:09 AM CDT 6:32 PM CDT
Nautical Twilight 6:32 AM CDT 7:09 PM CDT
Astronomical Twilight 5:57 AM CDT 7:44 PM CDT
Moon 6:11 AM CDT (10/25) 5:02 PM CDT (10/25)
Length of Visible Light 11h 23m
Length of Day
10h 20m
Waning Crescent, 2% of the Moon is Illuminated
Oct 25
Waning Crescent
Oct 26
New
Nov 2
First Quarter
Nov 10
Full
Nov 18
Last Quarter

Hourly Weather History & Observations

Time (CDT) Temp. Windchill Dew Point Humidity Pressure Visibility Wind Dir Wind Speed Gust Speed Precip Events Conditions
12:12 AM 28.4 °F - 26.6 °F 93% 30.06 in 10.0 mi Calm Calm - N/A   Clear
12:33 AM 28.4 °F - 26.6 °F 93% 30.07 in 10.0 mi Calm Calm - N/A   Clear
12:52 AM 28.4 °F - 26.6 °F 93% 30.07 in 10.0 mi Calm Calm - N/A   Clear
1:12 AM 28.4 °F - 26.6 °F 93% 30.07 in 10.0 mi Calm Calm - N/A   Clear
1:33 AM 28.4 °F - 26.6 °F 93% 30.08 in 10.0 mi Calm Calm - N/A   Clear
1:53 AM 28.4 °F - 26.6 °F 93% 30.07 in 10.0 mi Calm Calm - N/A   Clear
2:12 AM 28.4 °F - 26.6 °F 93% 30.07 in 10.0 mi Calm Calm - N/A   Clear
2:33 AM 28.4 °F - 26.6 °F 93% 30.07 in 10.0 mi Calm Calm - N/A   Clear
2:52 AM 30.2 °F - 26.6 °F 86% 30.07 in 10.0 mi Calm Calm - N/A   Clear
3:12 AM 28.4 °F - 26.6 °F 93% 30.06 in 10.0 mi Calm Calm - N/A   Clear
3:32 AM 28.4 °F - 26.6 °F 93% 30.05 in 10.0 mi Calm Calm - N/A   Clear
3:52 AM 28.4 °F - 26.6 °F 93% 30.05 in 10.0 mi Calm Calm - N/A   Clear
4:12 AM 28.4 °F - 26.6 °F 93% 30.05 in 10.0 mi Calm Calm - N/A   Clear
4:32 AM 26.6 °F - 26.6 °F 100% 30.05 in 10.0 mi Calm Calm - N/A   Clear
4:53 AM 26.6 °F - 24.8 °F 93% 30.04 in 10.0 mi Calm Calm - N/A   Clear
5:12 AM 28.4 °F - 26.6 °F 93% 30.04 in 10.0 mi Calm Calm - N/A   Clear
5:32 AM 26.6 °F - 26.6 °F 100% 30.04 in 10.0 mi Calm Calm - N/A   Clear
5:53 AM 28.4 °F - 26.6 °F 93% 30.04 in 10.0 mi Calm Calm - N/A   Clear
6:12 AM 28.4 °F - 26.6 °F 93% 30.04 in 10.0 mi Calm Calm - N/A   Clear
6:32 AM 28.4 °F - 26.6 °F 93% 30.03 in 10.0 mi Calm Calm - N/A   Clear
6:53 AM 26.6 °F - 26.6 °F 100% 30.03 in 10.0 mi Calm Calm - N/A   Clear
7:12 AM 26.6 °F - 24.8 °F 93% 30.03 in 10.0 mi Calm Calm - N/A   Clear
7:32 AM 26.6 °F - 26.6 °F 100% 30.04 in 1.0 mi Calm Calm - N/A   Clear
7:53 AM 24.8 °F - 24.8 °F 100% 30.04 in 10.0 mi Calm Calm - N/A   Clear
8:13 AM 26.6 °F - 24.8 °F 93% 30.04 in 10.0 mi Calm Calm - N/A   Clear
8:32 AM 26.6 °F - 24.8 °F 93% 30.05 in 10.0 mi Calm Calm - N/A   Scattered Clouds
8:52 AM 28.4 °F - 26.6 °F 93% 30.05 in 10.0 mi Calm Calm - N/A   Scattered Clouds
9:13 AM 30.2 °F - 28.4 °F 93% 30.05 in 10.0 mi Calm Calm - N/A   Clear
9:32 AM 32.0 °F - 28.4 °F 87% 30.05 in 10.0 mi Calm Calm - N/A   Clear
9:52 AM 33.8 °F - 30.2 °F 87% 30.04 in 10.0 mi Calm Calm - N/A   Clear
10:12 AM 35.6 °F - 30.2 °F 81% 30.03 in 10.0 mi Calm Calm - N/A   Clear
10:32 AM 35.6 °F - 30.2 °F 81% 30.04 in 10.0 mi Calm Calm - N/A   Clear
10:52 AM 37.4 °F - 30.2 °F 75% 30.04 in 10.0 mi Calm Calm - N/A   Clear
11:13 AM 37.4 °F 34.9 °F 30.2 °F 75% 30.03 in 10.0 mi East 3.5 mph - N/A   Clear
11:32 AM 39.2 °F 35.9 °F 30.2 °F 70% 30.03 in 10.0 mi East 4.6 mph - N/A   Clear
11:52 AM 41.0 °F 37.1 °F 28.4 °F 61% 30.04 in 10.0 mi East 5.8 mph - N/A   Clear
12:13 PM 42.8 °F 39.3 °F 28.4 °F 57% 30.03 in 10.0 mi ESE 5.8 mph - N/A   Clear
12:32 PM 42.8 °F 39.3 °F 28.4 °F 57% 30.03 in 10.0 mi East 5.8 mph - N/A   Clear
12:52 PM 42.8 °F 39.3 °F 28.4 °F 57% 30.03 in 10.0 mi East 5.8 mph - N/A   Clear
1:13 PM 42.8 °F 40.1 °F 28.4 °F 57% 30.02 in 10.0 mi East 4.6 mph - N/A   Clear
1:32 PM 44.6 °F 43.1 °F 28.4 °F 53% 30.02 in 10.0 mi East 3.5 mph - N/A   Clear
1:53 PM 44.6 °F 43.1 °F 28.4 °F 53% 30.01 in 10.0 mi ENE 3.5 mph - N/A   Clear
2:12 PM 44.6 °F 42.2 °F 28.4 °F 53% 30.01 in 10.0 mi ENE 4.6 mph - N/A   Clear
2:33 PM 44.6 °F - 28.4 °F 53% 30.01 in 10.0 mi Calm Calm - N/A   Clear
2:52 PM 44.6 °F 43.1 °F 28.4 °F 53% 30.00 in 10.0 mi East 3.5 mph - N/A   Clear
3:12 PM 44.6 °F - 28.4 °F 53% 30.00 in 10.0 mi Calm Calm - N/A   Scattered Clouds
3:32 PM 44.6 °F 43.1 °F 28.4 °F 53% 30.00 in 10.0 mi ENE 3.5 mph - N/A   Clear
3:52 PM 44.6 °F 43.1 °F 28.4 °F 53% 30.00 in 10.0 mi NE 3.5 mph - N/A   Clear
4:13 PM 44.6 °F 43.1 °F 30.2 °F 57% 30.01 in 10.0 mi NNE 3.5 mph - N/A   Clear
4:32 PM 44.6 °F 43.1 °F 30.2 °F 57% 30.01 in 10.0 mi NNE 3.5 mph - N/A   Clear
4:53 PM 42.8 °F - 30.2 °F 61% 30.02 in 10.0 mi Calm Calm - N/A   Clear
5:13 PM 42.8 °F - 30.2 °F 61% 30.01 in 10.0 mi Calm Calm - N/A   Clear
5:32 PM 42.8 °F - 30.2 °F 61% 30.02 in 10.0 mi Calm Calm - N/A   Clear
5:53 PM 42.8 °F - 30.2 °F 61% 30.03 in 10.0 mi Calm Calm - N/A   Clear
6:13 PM 39.2 °F - 30.2 °F 70% 30.03 in 10.0 mi Calm Calm - N/A   Clear
6:32 PM 39.2 °F - 30.2 °F 70% 30.03 in 10.0 mi Calm Calm - N/A   Clear
6:53 PM 37.4 °F - 30.2 °F 75% 30.04 in 10.0 mi Calm Calm - N/A   Clear
7:12 PM 37.4 °F - 30.2 °F 75% 30.04 in 10.0 mi Calm Calm - N/A   Clear
7:32 PM 35.6 °F - 30.2 °F 81% 30.04 in 10.0 mi Calm Calm - N/A   Clear
7:53 PM 35.6 °F - 30.2 °F 81% 30.03 in 10.0 mi Calm Calm - N/A   Scattered Clouds
8:12 PM 33.8 °F - 30.2 °F 87% 30.03 in 10.0 mi Calm Calm - N/A   Clear
8:32 PM - - - N/A% 30.03 in 10.0 mi Calm Calm - N/A   Clear
8:53 PM 28.4 °F - 26.6 °F 93% 30.03 in 10.0 mi Calm Calm - N/A   Clear
9:13 PM 30.2 °F - 26.6 °F 86% 30.04 in 10.0 mi Calm Calm - N/A   Clear
9:32 PM 30.2 °F - 26.6 °F 86% 30.04 in 10.0 mi Calm Calm - N/A   Mostly Cloudy
9:53 PM 30.2 °F - 26.6 °F 86% 30.05 in 10.0 mi Calm Calm - N/A   Overcast
10:12 PM 30.2 °F - 28.4 °F 93% 30.05 in 10.0 mi Calm Calm - N/A   Overcast
10:32 PM 30.2 °F - 28.4 °F 93% 30.04 in 10.0 mi Calm Calm - N/A   Overcast
10:53 PM 30.2 °F - 28.4 °F 93% 30.04 in 10.0 mi Calm Calm - N/A   Overcast
11:12 PM 30.2 °F - 28.4 °F 93% 30.03 in 10.0 mi Calm Calm - N/A   Overcast
11:32 PM 28.4 °F - 26.6 °F 93% 30.03 in 10.0 mi Calm Calm - N/A   Overcast
11:53 PM 28.4 °F - 26.6 °F 93% 30.04 in 10.0 mi Calm Calm - N/A   Overcast